Location: Ahausen
(50.4985°N, 8.2722°E)
Time: 21:50:15
(UTC+00:00)

JY1SAT - Pass Details

Date: 07 July 2022
Orbit: 563 x 586 km, 97.6° (Epoch: 13 August)

Event Time Altitude Azimuth Distance (km) Brightness Sun altitude
Exits shadow 22:12:57 - 224° (SW) 2,465 ? -14.9°
Reaches altitude 10° 22:15:12 10° 246° (WSW) 1,914 ? -15.0°
Maximum altitude 22:17:04 13° 273° (W) 1,742 ? -15.1°
Drops below altitude 10° 22:18:56 10° 300° (WNW) 1,918 ? -15.2°
Sets 22:22:18 0° 329° (NNW) 2,821 ? -15.4°
